Regional Weather Roundup
Issued by NWS Sioux Falls, SD

Home | Current Version | Previous Version | Text Only | Print | Product List | Glossary On
Versions: 1 2 3 4 5 6 7 8 9 10 11 12 13 14 15 16 17 18 19 20 21 22 23 24 25 26 27 28 29 30 31 32 33 34 35 36 37 38 39 40 41 42 43 44 45 46 47 48 49 50
000
ASUS43 KFSD 060310
RWRFSD

WEATHER ROUNDUP FOR SE SOUTH DAKOTA/SW MINNESOTA/NW IOWA
NATIONAL WEATHER SERVICE SIOUX FALLS SD
1000 PM CDT TUE MAY 05 2015

NOTE: "FAIR" INDICATES FEW OR NO CLOUDS BELOW 12,000 FEET WITH NO
SIGNIFICANT WEATHER AND OR OBSTRUCTIONS TO VISIBILITY.


SDZ038>040-050-052>070-060400-
SOUTHEAST SOUTH DAKOTA

CITY           SKY/WX    TMP DP  RH WIND       PRES   REMARKS
BROOKINGS      CLOUDY    61  55  82 SE16      30.02R
CHAMBERLAIN    CLOUDY    58  57  96 SE6       29.91S FOG
HURON          CLOUDY    62  58  86 SE8       29.94R
MADISON        CLOUDY    61  61 100 SE16      30.00R
MITCHELL       CLOUDY    64  58  80 SE13      29.94S
SIOUX FALLS    CLOUDY    63  59  87 SE14      29.99S
WINNER         CLOUDY    61  57  87 E3        29.91S
YANKTON        CLOUDY    68  57  68 E8        29.94S
$$

MNZ071-072-080-081-089-090-097-098-060400-
SOUTHWEST MINNESOTA

CITY           SKY/WX    TMP DP  RH WIND       PRES   REMARKS
FAIRMONT       CLOUDY    55  50  82 SE13G18   30.09R
JACKSON        CLOUDY    55  54  94 SE14      30.09R FOG
LUVERNE        CLOUDY    63  57  82 SE10G17   30.02S HAZE
MARSHALL       CLOUDY    57  50  77 SE14      30.04S
MONTEVIDEO     CLOUDY    59  54  82 S15       30.06S
REDWOOD FALLS  CLOUDY    57  52  83 SE14      30.07R
TRACY          CLOUDY    59  56  89 SE12      30.06R
WORTHINGTON    CLOUDY    57  54  88 SE14      30.06R
$$

IAZ001>003-012>014-020>022-031-032-NEZ013-014-SDZ071-060400-
NORTHWEST IOWA

CITY           SKY/WX    TMP DP  RH WIND       PRES   REMARKS
CHEROKEE       CLOUDY    64  64 100 E10       30.01S FOG
DENISON        CLOUDY    64  63  94 SE7       30.00R
ESTHERVILLE    FOG       55  55 100 SE15      30.08S VSB 1/2
LE MARS        CLOUDY    66  63  88 E10G17    30.00R
ORANGE CITY    CLOUDY    61  61 100 E13G18    30.00S FOG
SHELDON        CLOUDY    61  61 100 SE21      30.01S FOG
SIOUX CITY     CLOUDY    67  57  70 SE10      29.97R
SPENCER        FOG       60 N/A N/A E14       30.05S VSB 1/2
STORM LAKE     CLOUDY    63  63 100 E16G22    30.04R FOG
$$

ABBREVIATIONS USED IN REMARKS
   TC - TEMPERATURE IN CELSIUS
  WCI - WIND CHILL INDEX
   HX - HEAT INDEX
  VSB - VISIBILITY



USA.gov is the U.S. government's official web portal to all federal, state and local government web resources and services.